TimeFrame on Redefined Productions
Outwar Sigil TimeFrame

Sigil TimeFrame

95 Gods Updated: 2019-04-21 08:55:01
NameTime LeftWindow Opens
Old World Drake24d 19:402019-03-27 20:51:00
Animated Captain24d 19:302019-03-27 21:01:00
Lacuste of the Swarm2d 08:382019-04-19 07:53:00
Crantos, Defender of Ultimation1d 00:382019-04-20 15:53:00
Esquin, the Kinetic Master0d 20:512019-04-20 19:40:00
Q-SEC Commander0d 19:502019-04-20 20:41:00
Felroc, Overseer of Hellfire0d 19:282019-04-20 21:03:00
Karvaz, Lord of Alsayic0d 18:122019-04-20 22:19:00
Samatha Dark-Soul0d 14:452019-04-21 01:46:00
King Ashnar, Lord of the Unliving0d 13:502019-04-21 02:41:00
Raiyar, the Shadow Master0d 07:332019-04-21 08:58:00
Great Lord Ganeshan0d 07:142019-04-21 09:17:00
Straya, the Underworld Ruler0d 04:392019-04-21 11:52:00
Bolkor, the Holy Master0d 00:342019-04-21 15:57:00
Lord Xordam0d 00:102019-04-21 16:21:00
Rancid, Lord of Thugs0d 00:152019-04-21 16:47:00
Kretok, Descendant of Nature0d 00:312019-04-21 17:03:00
Ancient Magus Tarkin0d 01:142019-04-21 17:46:00
Shadow0d 02:302019-04-21 19:02:00
Freezebreed, The Frozen Manipulator0d 03:252019-04-21 19:57:00
Howldroid, Tormentor of the Pit0d 03:312019-04-21 20:03:00
Sarcrina the Astral Priestess0d 03:452019-04-21 20:17:00
Traxodon the Plaguebringer0d 04:092019-04-21 20:41:00
Lord Narada0d 04:152019-04-21 20:47:00
Dlanod, the Crazed Chancellor0d 05:042019-04-21 21:36:00
Wanhiroeaz the Devourer0d 05:192019-04-21 21:51:00
Viserion, the Necrodragon0d 05:302019-04-21 22:02:00
Ag Nabak the Abomination0d 05:422019-04-21 22:14:00
Smoot the Yeti0d 06:012019-04-21 22:33:00
Vitkros, Hydra of the Deep0d 06:412019-04-21 23:13:00
Anguish0d 08:002019-04-22 00:32:00
Lord Varan0d 08:302019-04-22 01:02:00
Crane0d 08:512019-04-22 01:23:00
Slashbrood, Devourer of the Blackness0d 10:002019-04-22 02:32:00
Lady Chaos, Queen of the Abyss0d 10:192019-04-22 02:51:00
Synge, The Red Dragon0d 10:382019-04-22 03:10:00
Lord Suka0d 10:472019-04-22 03:19:00
Quiver, The Renegade0d 11:012019-04-22 03:33:00
Baron Mu, Dark Rider of the Undead0d 12:182019-04-22 04:50:00
Detox0d 12:462019-04-22 05:18:00
Rotborn, Eater of the Dead0d 13:422019-04-22 06:14:00
Ebliss, Fallen Angel of Despair0d 14:142019-04-22 06:46:00
Nar Zhul, Slayer of All0d 14:242019-04-22 06:56:00
Nayark the Mummified Sorcerer0d 15:512019-04-22 08:23:00
Tsort0d 15:532019-04-22 08:25:00
Gnorb0d 15:552019-04-22 08:27:00
Garland, The Lord Keeper0d 17:002019-04-22 09:32:00
Threk, King of Lords0d 18:202019-04-22 10:52:00
Melt Bane, The Forbidden Demon Dragon0d 19:342019-04-22 12:06:00
Lady Ariella0d 20:272019-04-22 12:59:00
Nessam0d 20:452019-04-22 13:17:00
The Emerald Assassin0d 21:102019-04-22 13:42:00
Xynak, the Arcane Master0d 21:522019-04-22 14:24:00
Ganja the Stone Golem0d 23:292019-04-22 16:01:00
Sigil, Lich of Woe0d 23:552019-04-22 16:27:00
Volgan the Living Ironbark1d 00:192019-04-22 16:51:00
Balerion, Dragon of Dread1d 01:372019-04-22 18:09:00
Hyrak, Bringer of Nightmares1d 01:382019-04-22 18:10:00
Terrance, Rebel of Rallis1d 02:062019-04-22 18:38:00
Brutalitar, Lord of the Underworld1d 02:082019-04-22 18:40:00
Bloodchill the Grizzly1d 03:112019-04-22 19:43:00
Zikkir the Dark Archer1d 04:452019-04-22 21:17:00
Gorganus of the Wood1d 06:012019-04-22 22:33:00
Pinosis1d 06:222019-04-22 22:54:00
Lord Sibannac1d 07:562019-04-23 00:28:00
Tylos, The Lord Master1d 08:262019-04-23 00:58:00
Keeper of Nature1d 09:202019-04-23 01:52:00
Amalgamated Apparition1d 09:542019-04-23 02:26:00
Mistress of the Sword1d 10:242019-04-23 02:56:00
Jorun the Blazing Swordsman1d 11:372019-04-23 04:09:00
Numerocure, The Black Messenger of Evil1d 15:152019-04-23 07:47:00
Ormsul the Putrid1d 16:342019-04-23 09:06:00
Windstrike The Vile1d 23:462019-04-23 16:18:00
Murderface2d 00:262019-04-23 16:58:00
Skybrine The Inescapable2d 01:132019-04-23 17:45:00
Jazzmin, Maiden of Vitality2d 02:182019-04-23 18:50:00
Grivvek, Protector of the Brood2d 03:302019-04-23 20:02:00
Archdevil Yirkon2d 03:342019-04-23 20:06:00
Dreg nor, Keeper of the Infernal Essence2d 05:542019-04-23 22:26:00
Zertan, The Collector2d 06:012019-04-23 22:33:00
Hackerphage, Protector of the Gateway2d 10:532019-04-24 03:25:00
Akkel the Enflamed Warrior2d 11:332019-04-24 04:05:00
Anvilfist2d 11:552019-04-24 04:27:00
Sylvanna TorLai3d 01:422019-04-24 18:14:00
Emperor Neudeus, Controller of the Universe3d 04:002019-04-24 20:32:00
Varsanor, Master of Darkness4d 00:092019-04-25 16:41:00
Crolvak, the Fire Master4d 11:452019-04-26 04:17:00
Nafir, God of Desolation4d 11:572019-04-26 04:29:00
Skarthul the Avenged4d 18:412019-04-26 11:13:00
Kro Shuk, Doomslayer4d 20:412019-04-26 13:13:00
Noxious Slug79d 16:422019-01-31 23:49:00
Beast of Cards78d 22:372019-02-01 17:54:00
Jade Dragonite62d 05:432019-02-18 10:48:00
Shaik, Servant of Arkron2d 09:592019-04-19 06:32:00
Rook, Hand of Arkron1d 04:312019-04-20 12:00:00